Stündliche Wetter Caucasia

Heute, 26 Januar, Dienstag

Zeit Temperatur Niederschläge Wind Luftdruck Luftfeuchtigkeit
00:00 +26°C° 0.2 mm 2 m/S 752 mmHg 90%
01:00 +26°C° 0 mm 1 m/S 752 mmHg 91%
02:00 +26°C° 0 mm 1 m/S 752 mmHg 92%
03:00 +25°C° 0 mm 1 m/S 751 mmHg 94%
04:00 +25°C° 0 mm 1 m/S 751 mmHg 95%
05:00 +25°C° 0 mm 1 m/S 752 mmHg 95%
06:00 +25°C° 0 mm 1 m/S 752 mmHg 95%
07:00 +25°C° 0 mm 1 m/S 753 mmHg 93%
08:00 +27°C° 0 mm 1 m/S 753 mmHg 84%
09:00 +28°C° 0 mm 0 m/S 753 mmHg 74%
10:00 +30°C° 0 mm 0 m/S 753 mmHg 65%
11:00 +31°C° 0 mm 0 m/S 752 mmHg 60%
12:00 +34°C° 0 mm 1 m/S 751 mmHg 55%
13:00 +35°C° 0 mm 1 m/S 751 mmHg 50%
14:00 +35°C° 0 mm 1 m/S 750 mmHg 50%
15:00 +35°C° 0 mm 1 m/S 749 mmHg 50%
16:00 +35°C° 0 mm 1 m/S 748 mmHg 51%
17:00 +33°C° 0 mm 1 m/S 749 mmHg 56%
18:00 +32°C° 0 mm 1 m/S 750 mmHg 62%
19:00 +30°C° 0 mm 1 m/S 750 mmHg 68%
20:00 +29°C° 0 mm 2 m/S 751 mmHg 72%
21:00 +28°C° 0 mm 2 m/S 751 mmHg 76%
22:00 +27°C° 0 mm 2 m/S 752 mmHg 81%
23:00 +27°C° 0 mm 2 m/S 752 mmHg 83%

Morgen, 27 Januar, Mittwoch

Zeit Temperatur Niederschläge Wind Luftdruck Luftfeuchtigkeit
00:00 +26°C° 0 mm 2 m/S 752 mmHg 86%
01:00 +26°C° 0 mm 1 m/S 752 mmHg 88%
02:00 +26°C° 0 mm 1 m/S 752 mmHg 89%
03:00 +26°C° 0 mm 1 m/S 752 mmHg 90%
04:00 +26°C° 0 mm 1 m/S 751 mmHg 90%
05:00 +26°C° 0 mm 1 m/S 752 mmHg 91%
06:00 +26°C° 0 mm 1 m/S 752 mmHg 91%
07:00 +26°C° 0 mm 1 m/S 753 mmHg 91%
08:00 +28°C° 0 mm 1 m/S 753 mmHg 83%
09:00 +28°C° 0 mm 0 m/S 753 mmHg 74%
10:00 +30°C° 0 mm 0 m/S 754 mmHg 66%
11:00 +33°C° 0.1 mm 1 m/S 753 mmHg 62%
12:00 +33°C° 0.1 mm 1 m/S 752 mmHg 58%
13:00 +35°C° 0.1 mm 2 m/S 752 mmHg 55%
14:00 +35°C° 0.1 mm 2 m/S 751 mmHg 55%
15:00 +34°C° 0.1 mm 1 m/S 751 mmHg 56%
16:00 +34°C° 0.1 mm 1 m/S 750 mmHg 56%
17:00 +32°C° 0 mm 1 m/S 750 mmHg 63%
18:00 +30°C° 0 mm 1 m/S 751 mmHg 70%
19:00 +29°C° 0 mm 1 m/S 751 mmHg 77%
20:00 +28°C° 0.2 mm 1 m/S 752 mmHg 81%
21:00 +27°C° 0.2 mm 2 m/S 752 mmHg 85%
22:00 +27°C° 0.2 mm 2 m/S 753 mmHg 89%
23:00 +26°C° 0.2 mm 1 m/S 753 mmHg 90%

übermorgen, 28 Januar, Donnerstag

Zeit Temperatur Niederschläge Wind Luftdruck Luftfeuchtigkeit
00:00 +26°C° 0.2 mm 1 m/S 753 mmHg 92%
01:00 +26°C° 0.2 mm 1 m/S 753 mmHg 93%
02:00 +26°C° 0.1 mm 1 m/S 753 mmHg 94%
03:00 +25°C° 0.1 mm 1 m/S 753 mmHg 94%
04:00 +25°C° 0.1 mm 1 m/S 753 mmHg 95%
05:00 +25°C° 0.2 mm 1 m/S 753 mmHg 95%
06:00 +25°C° 0.2 mm 1 m/S 753 mmHg 95%
07:00 +25°C° 0.2 mm 1 m/S 754 mmHg 95%
08:00 +27°C° 0.2 mm 1 m/S 754 mmHg 86%
09:00 +29°C° 0.2 mm 1 m/S 754 mmHg 77%
10:00 +31°C° 0.2 mm 2 m/S 754 mmHg 68%
11:00 +32°C° 0.1 mm 2 m/S 754 mmHg 63%
12:00 +34°C° 0.1 mm 2 m/S 753 mmHg 58%
13:00 +35°C° 0.1 mm 2 m/S 752 mmHg 53%
14:00 +35°C° 0.1 mm 2 m/S 752 mmHg 53%
15:00 +35°C° 0.1 mm 2 m/S 751 mmHg 53%
16:00 +35°C° 0.1 mm 2 m/S 750 mmHg 53%
17:00 +32°C° 0 mm 2 m/S 751 mmHg 60%
18:00 +30°C° 0 mm 2 m/S 751 mmHg 68%
19:00 +29°C° 0 mm 2 m/S 752 mmHg 75%
20:00 +28°C° 0 mm 2 m/S 752 mmHg 79%
21:00 +27°C° 0 mm 2 m/S 752 mmHg 83%
22:00 +27°C° 0 mm 2 m/S 753 mmHg 87%
23:00 +26°C° 0.1 mm 2 m/S 753 mmHg 89%

29 Januar, Freitag

Zeit Temperatur Niederschläge Wind Luftdruck Luftfeuchtigkeit
00:00 +26°C° 0.1 mm 2 m/S 753 mmHg 91%
01:00 +26°C° 0.1 mm 1 m/S 753 mmHg 93%
02:00 +25°C° 0.3 mm 2 m/S 752 mmHg 94%
03:00 +25°C° 0.3 mm 2 m/S 752 mmHg 94%
04:00 +25°C° 0.3 mm 2 m/S 752 mmHg 95%
05:00 +25°C° 0.1 mm 1 m/S 752 mmHg 95%
06:00 +25°C° 0.1 mm 1 m/S 753 mmHg 94%
07:00 +25°C° 0.1 mm 1 m/S 753 mmHg 93%
08:00 +27°C° 0 mm 1 m/S 753 mmHg 84%
09:00 +29°C° 0 mm 1 m/S 753 mmHg 76%
10:00 +31°C° 0 mm 1 m/S 753 mmHg 67%
11:00 +32°C° 0 mm 1 m/S 752 mmHg 61%
12:00 +34°C° 0 mm 1 m/S 751 mmHg 56%
13:00 +35°C° 0 mm 1 m/S 751 mmHg 51%
14:00 +36°C° 0 mm 2 m/S 750 mmHg 52%
15:00 +35°C° 0 mm 2 m/S 749 mmHg 53%
16:00 +35°C° 0 mm 3 m/S 748 mmHg 54%
17:00 +32°C° 0 mm 2 m/S 749 mmHg 59%
18:00 +31°C° 0 mm 2 m/S 749 mmHg 65%
19:00 +29°C° 0 mm 1 m/S 750 mmHg 70%
20:00 +28°C° 0 mm 2 m/S 750 mmHg 75%
21:00 +28°C° 0 mm 2 m/S 751 mmHg 80%
22:00 +27°C° 0 mm 3 m/S 751 mmHg 84%
23:00 +27°C° 0 mm 3 m/S 751 mmHg 83%

30 Januar, Samstag

Zeit Temperatur Niederschläge Wind Luftdruck Luftfeuchtigkeit
00:00 +27°C° 0 mm 2 m/S 751 mmHg 82%
01:00 +27°C° 0 mm 2 m/S 751 mmHg 81%
02:00 +26°C° 0 mm 2 m/S 751 mmHg 83%
03:00 +26°C° 0 mm 1 m/S 751 mmHg 85%
04:00 +26°C° 0 mm 1 m/S 751 mmHg 87%
05:00 +26°C° 0 mm 1 m/S 751 mmHg 88%
06:00 +23°C° 0 mm 0 m/S 752 mmHg 88%
07:00 +23°C° 0 mm 0 m/S 752 mmHg 89%
08:00 +26°C° 0 mm 0 m/S 753 mmHg 78%
09:00 +28°C° 0 mm 0 m/S 753 mmHg 67%
10:00 +30°C° 0 mm 0 m/S 753 mmHg 57%
11:00 +33°C° 0 mm 1 m/S 752 mmHg 53%
12:00 +34°C° 0 mm 1 m/S 751 mmHg 49%
13:00 +36°C° 0 mm 2 m/S 750 mmHg 46%
14:00 +35°C° 0 mm 1 m/S 750 mmHg 46%
15:00 +35°C° 0 mm 1 m/S 749 mmHg 46%
16:00 +35°C° 0 mm 1 m/S 749 mmHg 45%
17:00 +33°C° 0 mm 1 m/S 749 mmHg 51%
18:00 +32°C° 0 mm 1 m/S 749 mmHg 56%
19:00 +30°C° 0 mm 1 m/S 750 mmHg 61%
20:00 +29°C° 0 mm 1 m/S 750 mmHg 65%
21:00 +28°C° 0 mm 2 m/S 751 mmHg 69%
22:00 +27°C° 0 mm 2 m/S 751 mmHg 74%
23:00 +27°C° 0 mm 2 m/S 751 mmHg 77%

31 Januar, Sonntag

Zeit Temperatur Niederschläge Wind Luftdruck Luftfeuchtigkeit
00:00 +26°C° 0 mm 1 m/S 751 mmHg 81%
01:00 +26°C° 0 mm 1 m/S 751 mmHg 84%
02:00 +25°C° 0 mm 1 m/S 751 mmHg 86%
03:00 +25°C° 0 mm 1 m/S 751 mmHg 87%
04:00 +25°C° 0 mm 1 m/S 751 mmHg 89%
05:00 +25°C° 0 mm 1 m/S 752 mmHg 89%
06:00 +25°C° 0 mm 1 m/S 752 mmHg 89%
07:00 +25°C° 0 mm 1 m/S 753 mmHg 89%
08:00 +25°C° 0 mm 0 m/S 753 mmHg 79%
09:00 +28°C° 0 mm 0 m/S 753 mmHg 70%
10:00 +30°C° 0 mm 0 m/S 754 mmHg 60%
11:00 +33°C° 0 mm 1 m/S 753 mmHg 55%
12:00 +34°C° 0 mm 1 m/S 752 mmHg 51%
13:00 +35°C° 0 mm 1 m/S 751 mmHg 46%
14:00 +35°C° 0 mm 1 m/S 750 mmHg 47%
15:00 +35°C° 0 mm 1 m/S 750 mmHg 48%
16:00 +35°C° 0 mm 1 m/S 749 mmHg 48%
17:00 +33°C° 0 mm 1 m/S 750 mmHg 53%
18:00 +31°C° 0 mm 1 m/S 750 mmHg 59%
19:00 +30°C° 0 mm 1 m/S 750 mmHg 64%
20:00 +29°C° 0 mm 2 m/S 751 mmHg 69%
21:00 +28°C° 0 mm 2 m/S 752 mmHg 74%
22:00 +28°C° 0 mm 2 m/S 752 mmHg 79%
23:00 +27°C° 0.3 mm 2 m/S 752 mmHg 83%
Mehr zeigen

Wir brauchen deine Erlaubnis

Meteoprog und unser Service Anbieter werden persönliche Daten aufbewahren, so wie Cookies, Geräte Bezeichnung oder ähnliche Technologien von deinem Gerät und Prozess, so wie Persönliche Daten Inhalte und Werbungen, genauso wie social Media und den Verkehr zu analysieren.

  • Aufbewahrung und/oder Zugang zu deiner Geräte Informationen.

    Cookies, Geräte Bezeichnung oder andere Informationen, können aufbewahrt oder Zugang zu deinem Gerät erhalten, für den Grund, der oben angegeben wird.

  • Personalisierte Werbung und Inhalte, Messungen, Einblick in das Publikum und Produkt Entwicklung.

    Werbungen und Inhalte können personalisiert werden, basierend auf ein Profil. Mehr Daten können besser personalisierte Werbungen und Inhalte hinzufügen. Werbung und Inhalte können gezeigt und gemessen werden. Einblicke über das Publikum, welche die Werbung gesehen haben und den Inhalt, können abgeleitet werden. So wie Daten können genutzt werden, um es zu verbessern oder die Benutzer Erfahrung zu verbessern das System und die Software.

Wenn du “Ich stimme zu” klickst, erlaubst du uns, die Cookies zu benutzen die Geräte Bezeichnung, den Web oder ähnliche Technologien zu benutzen. Deine Settings, können in deinem Gerät bei deinem Browser geändert werden.

Für den bestimmten Zweck, berechtigten Interessen beruhen darauf, mehr als auf den Inhalt. Du kannst mehr darüber in unseren Privaten und Cookie Politik lesen.